User: anonymous   Login
Location: Allos
(44.2333°N, 6.6333°E)
Time: 08:23:27
(UTC+00:00)
Language:

deb Kosmos-1275 - Orbit

View from above orbital plane
View from above orbital plane
View from above satellite
View from above satellite

Ground track
Ground track

The orbit data is extracted from the following two-line orbital elements,

1 12709U 81053BD  21171.44317697  .00000301  00000-0  36054-3 0  9994
2 12709  82.9717 157.6377 0121812 304.5928 179.5408 13.61148843974730
Epoch (UTC): 20 June 2021 10:38:10
Eccentricity: 0.0121812
inclination: 82.9717°
perigee height: 941 km
apogee height: 1122 km
right ascension of ascending node: 157.6377°
argument of perigee: 304.5928°
revolutions per day: 13.61148843
mean anomaly at epoch: 179.5408°
orbit number at epoch: 97473

The dashed part of the orbit path shows where the satellite is in the earth's shadow,  

DLR